�������l�o���
Date,Time,MP-1(��Sv/h),MP-2(��Sv/h),MP-3(��Sv/h),MP-4(��Sv/h),MP-5(��Sv/h),MP-6(��Sv/h),MP-7(��Sv/h),MP-8(��Sv/h),����,����(m/s),���J
2017/06/23,00:00,0.981,1.557,1.029,1.856,1.256,0.528,0.964,0.891,��,1.9,��
2017/06/23,00:10,0.980,1.557,1.030,1.860,1.255,0.527,0.963,0.892,���쐼,2.0,��
2017/06/23,00:20,0.980,1.558,1.031,1.859,1.254,0.527,0.963,0.890,���쐼,2.2,��
2017/06/23,00:30,0.981,1.558,1.031,1.858,1.254,0.528,0.963,0.892,���쐼,2.3,��
2017/06/23,00:40,0.982,1.555,1.031,1.856,1.256,0.527,0.964,0.891,��,2.0,��
2017/06/23,00:50,0.981,1.556,1.030,1.856,1.257,0.528,0.963,0.891,���쐼,2.3,��
2017/06/23,01:00,0.980,1.559,1.030,1.858,1.255,0.528,0.962,0.891,���k��,3.1,��
2017/06/23,01:10,0.983,1.559,1.030,1.858,1.254,0.529,0.962,0.892,��,2.6,��
2017/06/23,01:20,0.981,1.557,1.029,1.857,1.253,0.527,0.963,0.890,���k��,3.9,��
2017/06/23,01:30,0.982,1.556,1.029,1.857,1.256,0.527,0.964,0.890,���k��,2.2,��
2017/06/23,01:40,0.979,1.556,1.030,1.853,1.253,0.527,0.962,0.893,��,2.6,��
2017/06/23,01:50,0.980,1.557,1.033,1.855,1.256,0.527,0.962,0.892,��,2.6,��
2017/06/23,02:00,0.981,1.556,1.032,1.859,1.256,0.529,0.963,0.892,��,2.2,��
2017/06/23,02:10,0.979,1.555,1.031,1.855,1.254,0.526,0.963,0.892,���k��,0.9,��
2017/06/23,02:20,0.979,1.557,1.032,1.858,1.256,0.528,0.963,0.889,���k��,0.8,��
2017/06/23,02:30,0.979,1.557,1.027,1.855,1.257,0.527,0.964,0.889,�k��,1.7,��
2017/06/23,02:40,0.980,1.554,1.029,1.856,1.255,0.526,0.962,0.892,���k��,3.8,��
2017/06/23,02:50,0.980,1.555,1.031,1.857,1.255,0.525,0.962,0.891,�k��,2.3,��
2017/06/23,03:00,0.980,1.560,1.028,1.855,1.256,0.529,0.962,0.892,���쓌,0.9,��
2017/06/23,03:10,0.979,1.557,1.028,1.857,1.254,0.526,0.963,0.891,-,CALM,��
2017/06/23,03:20,0.979,1.555,1.031,1.858,1.257,0.527,0.964,0.891,���쐼,0.6,��
2017/06/23,03:30,0.978,1.557,1.031,1.856,1.255,0.528,0.963,0.890,���쐼,1.2,��
2017/06/23,03:40,0.980,1.555,1.030,1.858,1.255,0.526,0.963,0.891,��,1.2,��
2017/06/23,03:50,0.979,1.555,1.029,1.855,1.255,0.526,0.963,0.892,���k��,1.4,��
2017/06/23,04:00,0.978,1.555,1.029,1.856,1.256,0.526,0.963,0.891,�k��,2.3,��
2017/06/23,04:10,0.978,1.558,1.028,1.857,1.255,0.527,0.964,0.890,�k��,3.5,��
2017/06/23,04:20,0.978,1.559,1.030,1.855,1.257,0.527,0.963,0.891,�k��,5.1,��
2017/06/23,04:30,0.980,1.556,1.027,1.854,1.255,0.526,0.962,0.890,�k��,5.6,��
2017/06/23,04:40,0.978,1.557,1.031,1.854,1.256,0.527,0.961,0.891,�k��,5.3,��
2017/06/23,04:50,0.978,1.554,1.028,1.857,1.256,0.526,0.963,0.891,�k��,4.9,��
2017/06/23,05:00,0.979,1.555,1.027,1.858,1.255,0.527,0.963,0.890,�k��,4.7,��
2017/06/23,05:10,0.978,1.559,1.028,1.858,1.253,0.526,0.963,0.889,�k��,3.5,��
2017/06/23,05:20,0.978,1.556,1.029,1.854,1.255,0.523,0.961,0.891,���k��,3.6,��
2017/06/23,05:30,0.979,1.556,1.029,1.860,1.255,0.525,0.962,0.892,���k��,2.5,��
2017/06/23,05:40,0.981,1.557,1.029,1.855,1.255,0.524,0.963,0.891,���k��,2.3,��
2017/06/23,05:50,0.981,1.557,1.032,1.856,1.256,0.527,0.962,0.891,���k��,2.0,��
2017/06/23,06:00,0.981,1.556,1.030,1.855,1.256,0.526,0.964,0.890,��,1.2,��
2017/06/23,06:10,0.981,1.559,1.029,1.858,1.258,0.527,0.965,0.892,���k��,0.9,��
2017/06/23,06:20,0.979,1.560,1.030,1.860,1.259,0.526,0.964,0.889,���k��,1.2,��
2017/06/23,06:30,0.979,1.558,1.031,1.861,1.257,0.526,0.965,0.892,��,1.4,��
2017/06/23,06:40,0.982,1.559,1.030,1.862,1.254,0.528,0.964,0.892,��,1.2,��
2017/06/23,06:50,0.981,1.552,1.032,1.860,1.258,0.526,0.965,0.893,���k��,0.9,��
2017/06/23,07:00,0.982,1.557,1.029,1.859,1.256,0.525,0.965,0.893,�k��,1.4,��
2017/06/23,07:10,0.981,1.556,1.032,1.861,1.259,0.525,0.966,0.892,�k�k��,1.1,��
2017/06/23,07:20,0.981,1.555,1.032,1.861,1.255,0.524,0.964,0.893,-,CALM,��
2017/06/23,07:30,0.979,1.560,1.032,1.860,1.257,0.526,0.963,0.892,�k,0.6,��
2017/06/23,07:40,0.980,1.556,1.032,1.864,1.260,0.523,0.962,0.893,���k��,0.9,��
2017/06/23,07:50,0.982,1.560,1.032,1.865,1.258,0.524,0.965,0.891,-,CALM,��
2017/06/23,08:00,0.979,1.558,1.032,1.862,1.257,0.524,0.962,0.890,��,1.4,��
2017/06/23,08:10,0.980,1.559,1.033,1.861,1.262,0.525,0.963,0.889,��,2.3,��
2017/06/23,08:20,0.979,1.560,1.030,1.860,1.258,0.524,0.962,0.890,��,1.9,��
2017/06/23,08:30,0.981,1.557,1.030,1.859,1.260,0.525,0.963,0.891,���쓌,1.5,��
2017/06/23,08:40,0.980,1.560,1.030,1.860,1.258,0.524,0.965,0.887,���쓌,3.2,��
2017/06/23,08:50,0.981,1.558,1.030,1.863,1.257,0.524,0.963,0.889,�쓌,3.7,��
2017/06/23,09:00,0.983,1.560,1.029,1.863,1.257,0.524,0.963,0.889,���쓌,2.6,��
2017/06/23,09:10,0.983,1.560,1.029,1.861,1.255,0.523,0.962,0.888,���쓌,4.0,��
2017/06/23,09:20,0.983,1.561,1.029,1.862,1.260,0.524,0.968,0.889,�쓌,4.9,��
2017/06/23,09:30,0.982,1.564,1.029,1.862,1.260,0.525,0.964,0.890,���쓌,4.3,��
2017/06/23,09:40,0.982,1.566,1.030,1.863,1.262,0.524,0.963,0.890,���쓌,5.1,��
2017/06/23,09:50,0.982,1.561,1.032,1.866,1.263,0.524,0.964,0.889,���쓌,5.8,��
2017/06/23,10:00,0.982,1.559,1.030,1.865,1.259,0.524,0.963,0.891,���쓌,5.5,��
2017/06/23,10:10,0.984,1.563,1.031,1.866,1.261,0.524,0.963,0.890,���쓌,4.1,��
2017/06/23,10:20,0.984,1.564,1.031,1.861,1.261,0.527,0.964,0.890,�쓌,3.5,��
2017/06/23,10:30,0.984,1.560,1.030,1.864,1.263,0.526,0.963,0.890,�쓌,2.6,��
2017/06/23,10:40,0.985,1.566,1.031,1.866,1.263,0.526,0.963,0.888,�쓌,4.2,��
2017/06/23,10:50,0.984,1.565,1.033,1.867,1.265,0.527,0.963,0.891,�쓌,3.5,��
2017/06/23,11:00,0.986,1.566,1.034,1.869,1.264,0.528,0.965,0.892,�쓌,3.7,��
2017/06/23,11:10,0.986,1.570,1.034,1.865,1.264,0.528,0.965,0.891,�쓌,3.5,��
2017/06/23,11:20,0.987,1.568,1.034,1.865,1.266,0.528,0.965,0.891,��쓌,3.2,��
2017/06/23,11:30,0.986,1.570,1.033,1.865,1.265,0.528,0.964,0.893,�쓌,3.8,��
2017/06/23,11:40,0.988,1.571,1.035,1.862,1.268,0.528,0.965,0.891,��쓌,5.4,��
2017/06/23,11:50,0.990,1.570,1.034,1.862,1.269,0.531,0.965,0.889,��쓌,5.2,��
2017/06/23,12:00,0.989,1.571,1.034,1.861,1.267,0.530,0.965,0.889,��쓌,4.7,��
2017/06/23,12:10,0.989,1.569,1.034,1.863,1.267,0.528,0.963,0.891,��쓌,5.5,��
2017/06/23,12:20,0.988,1.574,1.033,1.864,1.269,0.530,0.964,0.890,��쓌,5.2,��
2017/06/23,12:30,0.989,1.575,1.037,1.865,1.272,0.529,0.965,0.892,��쓌,5.3,��
2017/06/23,12:40,0.990,1.578,1.038,1.865,1.268,0.529,0.965,0.891,�쓌,6.0,��
2017/06/23,12:50,0.989,1.572,1.037,1.865,1.269,0.529,0.966,0.890,�쓌,4.9,��
2017/06/23,13:00,0.991,1.575,1.038,1.867,1.271,0.529,0.966,0.892,��쓌,6.9,��
2017/06/23,13:10,0.989,1.576,1.039,1.865,1.272,0.532,0.967,0.890,��쓌,7.7,��
2017/06/23,13:20,0.991,1.576,1.039,1.869,1.272,0.529,0.967,0.891,��쓌,6.4,��
2017/06/23,13:30,0.991,1.578,1.036,1.867,1.271,0.531,0.966,0.891,��쓌,5.8,��
2017/06/23,13:40,0.992,1.577,1.039,1.863,1.273,0.532,0.967,0.892,��쓌,7.9,��
2017/06/23,13:50,0.993,1.580,1.039,1.868,1.274,0.530,0.964,0.893,��쓌,6.3,��
2017/06/23,14:00,0.992,1.578,1.039,1.867,1.274,0.530,0.967,0.891,��쓌,4.6,��
2017/06/23,14:10,0.993,1.579,1.039,1.866,1.273,0.531,0.966,0.891,�쓌,5.0,��
2017/06/23,14:20,0.993,1.580,1.036,1.867,1.275,0.529,0.966,0.891,��쓌,4.6,��
2017/06/23,14:30,0.993,1.579,1.039,1.867,1.274,0.530,0.966,0.891,�쓌,4.3,��
2017/06/23,14:40,0.991,1.578,1.039,1.867,1.272,0.530,0.967,0.891,�쓌,6.3,��
2017/06/23,14:50,0.989,1.578,1.039,1.872,1.275,0.532,0.966,0.892,�쓌,4.9,��
2017/06/23,15:00,0.992,1.580,1.040,1.871,1.274,0.532,0.967,0.892,��쓌,5.4,��
2017/06/23,15:10,0.991,1.581,1.042,1.869,1.276,0.532,0.966,0.891,�쓌,6.4,��
2017/06/23,15:20,0.992,1.579,1.041,1.871,1.276,0.531,0.968,0.893,�쓌,6.1,��
2017/06/23,15:30,0.994,1.580,1.040,1.870,1.277,0.531,0.966,0.894,��쓌,6.2,��
2017/06/23,15:40,0.991,1.579,1.037,1.868,1.277,0.531,0.965,0.893,��쓌,6.3,��
2017/06/23,15:50,0.992,1.577,1.042,1.871,1.275,0.532,0.967,0.892,��쓌,6.0,��
2017/06/23,16:00,0.994,1.579,1.039,1.871,1.277,0.533,0.967,0.892,��쓌,4.9,��
2017/06/23,16:10,0.995,1.579,1.038,1.869,1.276,0.530,0.968,0.892,��쓌,3.7,��
2017/06/23,16:20,0.994,1.580,1.042,1.869,1.275,0.531,0.968,0.893,�쓌,5.0,��
2017/06/23,16:30,0.993,1.579,1.040,1.869,1.275,0.531,0.965,0.890,��쓌,6.0,��
2017/06/23,16:40,0.992,1.583,1.039,1.870,1.276,0.531,0.965,0.894,��쓌,5.9,��
2017/06/23,16:50,0.992,1.582,1.041,1.872,1.278,0.532,0.966,0.893,��쓌,3.5,��
2017/06/23,17:00,0.993,1.581,1.045,1.872,1.277,0.532,0.968,0.892,��쓌,4.3,��
2017/06/23,17:10,0.992,1.585,1.041,1.871,1.278,0.532,0.967,0.892,��,4.7,��
2017/06/23,17:20,0.992,1.585,1.044,1.871,1.275,0.530,0.967,0.893,��,5.0,��
2017/06/23,17:30,0.991,1.582,1.043,1.873,1.279,0.531,0.967,0.891,��,4.3,��
2017/06/23,17:40,0.992,1.584,1.043,1.873,1.277,0.534,0.965,0.892,��쐼,4.2,��
2017/06/23,17:50,0.991,1.583,1.044,1.871,1.276,0.531,0.965,0.893,��,4.6,��
2017/06/23,18:00,0.993,1.586,1.045,1.872,1.275,0.532,0.969,0.894,��,4.3,�L
2017/06/23,18:10,0.995,1.584,1.043,1.872,1.276,0.532,0.966,0.893,��,6.1,��
2017/06/23,18:20,0.992,1.583,1.044,1.875,1.278,0.532,0.968,0.896,��,5.8,��
2017/06/23,18:30,0.993,1.583,1.045,1.875,1.278,0.533,0.968,0.895,��,5.4,��
2017/06/23,18:40,0.994,1.583,1.043,1.875,1.277,0.532,0.970,0.895,��,5.2,��
2017/06/23,18:50,0.994,1.583,1.043,1.874,1.276,0.533,0.968,0.893,��,6.3,��
2017/06/23,19:00,0.994,1.585,1.044,1.875,1.277,0.532,0.969,0.895,��,7.8,��
2017/06/23,19:10,0.994,1.583,1.042,1.877,1.278,0.531,0.968,0.895,��,7.7,��
2017/06/23,19:20,0.992,1.581,1.044,1.876,1.276,0.532,0.970,0.895,��,7.3,��
2017/06/23,19:30,0.992,1.584,1.044,1.875,1.277,0.533,0.967,0.894,��,7.4,��
2017/06/23,19:40,0.992,1.586,1.047,1.876,1.277,0.532,0.969,0.895,��,6.9,��
2017/06/23,19:50,0.990,1.584,1.046,1.875,1.280,0.532,0.969,0.895,��,5.5,��
2017/06/23,20:00,0.989,1.585,1.047,1.875,1.278,0.534,0.969,0.895,��,4.1,��
2017/06/23,20:10,0.992,1.586,1.045,1.872,1.278,0.533,0.970,0.894,��,5.3,��
2017/06/23,20:20,0.993,1.583,1.046,1.875,1.281,0.531,0.967,0.895,��,5.2,��
2017/06/23,20:30,0.992,1.585,1.044,1.874,1.278,0.532,0.966,0.895,��,5.7,��
2017/06/23,20:40,0.994,1.587,1.047,1.875,1.279,0.532,0.968,0.894,��,6.7,��
2017/06/23,20:50,0.996,1.586,1.046,1.873,1.279,0.533,0.969,0.897,��,7.5,��
2017/06/23,21:00,0.995,1.586,1.045,1.875,1.279,0.533,0.969,0.896,��,7.7,��
2017/06/23,21:10,0.996,1.583,1.045,1.875,1.278,0.532,0.969,0.895,��,6.9,��
2017/06/23,21:20,0.997,1.584,1.045,1.873,1.278,0.532,0.970,0.895,��,5.9,��
2017/06/23,21:30,0.996,1.584,1.044,1.872,1.279,0.532,0.970,0.895,��,5.0,��
2017/06/23,21:40,0.993,1.584,1.043,1.873,1.277,0.532,0.968,0.897,��쓌,3.0,��
2017/06/23,21:50,0.994,1.584,1.046,1.874,1.280,0.531,0.969,0.892,��,4.2,��
2017/06/23,22:00,0.995,1.584,1.047,1.874,1.278,0.532,0.970,0.894,��,4.4,��
2017/06/23,22:10,0.995,1.585,1.044,1.871,1.279,0.532,0.969,0.893,��,4.4,��
2017/06/23,22:20,0.993,1.584,1.045,1.873,1.283,0.533,0.969,0.895,��,5.1,��
2017/06/23,22:30,0.995,1.584,1.044,1.871,1.280,0.533,0.967,0.895,��,6.3,��
2017/06/23,22:40,0.995,1.583,1.044,1.873,1.282,0.532,0.971,0.897,��,5.5,��
2017/06/23,22:50,0.994,1.583,1.048,1.874,1.275,0.531,0.969,0.895,��,4.6,��
2017/06/23,23:00,0.995,1.582,1.045,1.873,1.280,0.533,0.968,0.895,��,4.6,��
2017/06/23,23:10,0.995,1.582,1.045,1.871,1.281,0.534,0.969,0.895,��,5.2,��
2017/06/23,23:20,0.997,1.582,1.045,1.873,1.279,0.532,0.969,0.894,��쐼,4.9,��
2017/06/23,23:30,0.996,1.583,1.045,1.875,1.279,0.531,0.968,0.895,��,4.6,��
2017/06/23,23:40,0.995,1.583,1.044,1.872,1.280,0.532,0.969,0.893,��,4.7,��
2017/06/23,23:50,0.994,1.584,1.043,1.875,1.277,0.532,0.968,0.894,��,3.7,��
